Weather History for KBIS - March, 2013

Change the Weather History Date:

Tuesday, March 26, 2013

  Actual Average Record
Temperature  
Mean Temperature 19 °F 34 °F  
Max Temperature 34 °F 46 °F 74 °F (1960)
Min Temperature 3 °F 23 °F -13 °F (1964)
Degree Days  
Heating Degree Days 46 31  
Month to date heating degree days 1143 943  
Since 1 July heating degree days 7452 7374  
Cooling Degree Days 0 0  
Month to date cooling degree days 0 0  
Year to date cooling degree days 0 0  
Moisture  
Dew Point 13 °F    
Average Humidity 77    
Maximum Humidity 92    
Minimum Humidity 61    
Precipitation  
Precipitation 0.00 in 0.03 in 1.15 in (1950)
Month to date precipitation 0.83 0.71  
Year to date precipitation 1.42 1.65  
Snow  
Snow 0.00 in 0.20 in 11.90 in (1950)
Month to date snowfall 6.9 7.8  
Since 1 July snowfall 35.5 45.3  
Snow Depth T in    
Sea Level Pressure  
Sea Level Pressure 30.31 in    
Wind  
Wind Speed 9 mph (ESE)    
Max Wind Speed 16 mph    
Max Gust Speed 20 mph    
Visibility 10 miles    
Events      
T = Trace of Precipitation, MM = Missing Value Source: NWS Daily Summary

Daily Weather History Graph

Daily Weather History Graph

Search for Another Location

Airport or City:

Trip Planner

Search our weather history database for the weather conditions in past years. The results will help you decide how hot, cold, wet, or windy it might be!

Date:

Astronomy

Mar. 26, 2013 Rise Set
Actual Time 7:33 AM CDT 8:04 PM CDT
Civil Twilight 7:03 AM CDT 8:34 PM CDT
Nautical Twilight 6:27 AM CDT 9:11 PM CDT
Astronomical Twilight 5:49 AM CDT 9:48 PM CDT
Moon 7:44 PM CDT (3/26) 6:52 AM CDT (3/26)
Length of Visible Light 13h 31m
Length of Day
12h 30m
Waxing Gibbous, 99% of the Moon is Illuminated
Mar 26
Waxing Gibbous
Mar 27
Full
Apr 2
Last Quarter
Apr 10
New
Apr 18
First Quarter

Hourly Weather History & Observations

Time (CDT) Temp. Windchill Dew Point Humidity Pressure Visibility Wind Dir Wind Speed Gust Speed Precip Events Conditions
12:52 AM 10.9 °F 0.2 °F 8.1 °F 88% 30.41 in 10.0 mi NE 6.9 mph - N/A   Clear
1:52 AM 9.0 °F 0.6 °F 7.0 °F 92% 30.40 in 10.0 mi ENE 4.6 mph - N/A   Clear
2:52 AM 9.0 °F -0.9 °F 6.1 °F 88% 30.38 in 10.0 mi East 5.8 mph - N/A   Clear
3:52 AM 7.0 °F -4.5 °F 3.9 °F 87% 30.38 in 10.0 mi ENE 6.9 mph - N/A   Clear
4:52 AM 6.1 °F -5.6 °F 3.0 °F 87% 30.36 in 10.0 mi ENE 6.9 mph - N/A   Clear
5:52 AM 5.0 °F -8.1 °F 1.9 °F 87% 30.36 in 10.0 mi ENE 8.1 mph - N/A   Clear
6:52 AM 3.9 °F -6.9 °F 1.0 °F 88% 30.36 in 10.0 mi ENE 5.8 mph - N/A   Clear
7:52 AM 3.9 °F -9.4 °F -0.0 °F 84% 30.36 in 10.0 mi ENE 8.1 mph - N/A   Clear
8:52 AM 7.0 °F -4.5 °F 3.9 °F 87% 30.36 in 10.0 mi ENE 6.9 mph - N/A   Clear
9:52 AM 14.0 °F 2.9 °F 10.9 °F 88% 30.34 in 10.0 mi East 8.1 mph - N/A   Clear
10:52 AM 21.2 °F 10.9 °F 15.8 °F 80% 30.23 in 10.0 mi ESE 9.2 mph - N/A   Clear
11:52 AM 25.0 °F 14.8 °F 18.0 °F 75% 30.32 in 10.0 mi SE 10.4 mph - N/A   Partly Cloudy
12:11 PM 26.1 °F 15.6 °F 19.9 °F 78% 30.21 in 10.0 mi SE 11.5 mph - N/A   Mostly Cloudy
12:20 PM 27.0 °F 18.0 °F 19.0 °F 72% 30.21 in 10.0 mi South 9.2 mph - N/A   Scattered Clouds
12:52 PM 28.0 °F 18.6 °F 19.0 °F 69% 30.30 in 10.0 mi SSE 10.4 mph - N/A   Partly Cloudy
1:52 PM 30.0 °F 21.1 °F 21.0 °F 69% 30.28 in 10.0 mi ESE 10.4 mph - N/A   Clear
2:52 PM 32.0 °F 21.6 °F 21.0 °F 64% 30.27 in 10.0 mi SE 15.0 mph - N/A   Clear
3:52 PM 33.1 °F 23.4 °F 21.0 °F 61% 30.25 in 10.0 mi SE 13.8 mph - N/A   Clear
4:52 PM 34.0 °F 23.8 °F 23.0 °F 64% 30.23 in 10.0 mi ESE 16.1 mph - N/A   Clear
5:52 PM 32.0 °F 23.0 °F 21.0 °F 64% 30.25 in 10.0 mi ESE 11.5 mph - N/A   Clear
6:52 PM 30.9 °F 21.2 °F 21.0 °F 67% 30.26 in 10.0 mi ESE 12.7 mph - N/A   Clear
7:52 PM 28.0 °F 18.6 °F 19.9 °F 72% 30.27 in 10.0 mi ESE 10.4 mph - N/A   Clear
8:52 PM 25.0 °F 15.5 °F 19.0 °F 78% 30.27 in 10.0 mi East 9.2 mph - N/A   Clear
9:52 PM 23.0 °F 13.9 °F 18.0 °F 81% 30.27 in 10.0 mi ESE 8.1 mph - N/A   Clear
10:52 PM 21.0 °F 12.4 °F 17.1 °F 85% 30.28 in 10.0 mi ESE 6.9 mph - N/A   Clear
11:52 PM 18.0 °F 7.7 °F 15.1 °F 88% 30.28 in 10.0 mi East 8.1 mph - N/A   Clear